CW8659 Weather Reports


Display with metric or nautical units.
time (UTC)temp
F
wind
direction
speed
MPH
gust
MPH
rain 1hr
in
rain 24hr
in
rain mn
in
humidity
%
barometer
mb
20260504070333 34 190 0.0 0.0 0.00 0.00 0.00 86 1011.6
20260504050339 36 190 0.0 0.0 0.00 0.00 0.00 83 1011.5
20260504045822 36 190 0.0 0.0 0.00 0.00 0.00 83 1011.6
20260504045323 36 190 0.0 0.0 0.00 0.00 0.00 83 1011.5
20260504044836 36 190 0.0 0.0 0.00 0.00 0.00 83 1011.4
20260504044345 37 190 0.0 0.0 0.00 0.00 0.00 83 1011.5
20260504043833 37 190 0.0 0.0 0.00 0.00 0.00 83 1011.4
20260504043339 37 190 0.0 0.0 0.00 0.00 0.00 82 1011.4
20260504042823 37 190 0.0 0.0 0.00 0.00 0.00 82 1011.4
20260504042325 37 190 0.0 0.0 0.00 0.00 0.00 81 1011.4
20260504041828 37 190 0.0 0.0 0.00 0.00 0.00 81 1011.2
20260504041350 37 190 0.0 0.0 0.00 0.00 0.00 81 1011.2
20260504040856 37 190 0.0 0.0 0.00 0.00 0.00 81 1011.1
20260504040340 37 190 0.0 0.0 0.00 0.00 0.00 80 1011.0
20260504035827 37 190 0.0 0.0 0.00 0.00 0.00 80 1011.0
20260504035331 37 190 0.0 0.0 0.00 0.00 0.00 79 1011.0
20260504034837 38 190 0.0 0.0 0.00 0.00 0.00 79 1010.9
20260504034338 38 190 0.0 0.0 0.00 0.00 0.00 79 1010.8
20260504033830 38 190 0.0 0.0 0.00 0.00 0.00 79 1010.7
20260504033319 38 190 0.0 0.0 0.00 0.00 0.00 78 1010.7
20260504032845 38 190 0.0 0.0 0.00 0.00 0.00 78 1010.7
20260504032326 38 190 0.0 0.0 0.00 0.00 0.00 78 1010.8
20260504031829 39 190 0.0 0.0 0.00 0.00 0.00 77 1010.8
20260504031334 39 190 0.0 0.0 0.00 0.00 0.00 76 1010.8
20260504030857 39 190 0.0 0.0 0.00 0.00 0.00 76 1010.7
20260504030324 39 190 0.0 0.0 0.00 0.00 0.00 74 1010.6
20260504025831 39 190 0.0 0.0 0.00 0.00 0.00 74 1010.7
20260504025339 40 190 0.0 0.0 0.00 0.00 0.00 74 1010.7
20260504024846 40 190 0.0 0.0 0.00 0.00 0.00 74 1010.7
20260504024351 40 190 0.0 0.0 0.00 0.00 0.00 73 1010.8
20260504023832 40 190 0.0 0.0 0.00 0.00 0.00 72 1010.8
20260504023338 40 190 0.0 0.0 0.00 0.00 0.00 73 1010.8
20260504022817 41 190 0.0 0.0 0.00 0.00 0.00 73 1010.8
20260504022325 41 190 0.0 0.0 0.00 0.00 0.00 73 1010.8
20260504021823 41 190 0.0 0.0 0.00 0.00 0.00 73 1010.8
20260504021330 42 190 0.0 0.0 0.00 0.00 0.00 72 1010.8
20260504020853 42 190 0.0 0.0 0.00 0.00 0.00 72 1010.9
20260504020318 43 190 0.0 0.0 0.00 0.00 0.00 71 1010.8
20260504015844 43 190 0.0 0.0 0.00 0.00 0.00 70 1010.7
20260504015331 43 190 0.0 0.0 0.00 0.00 0.00 70 1010.7
20260504014835 44 190 0.0 0.0 0.00 0.00 0.00 68 1010.6
20260504014316 44 190 0.0 0.0 0.00 0.00 0.00 66 1010.5
20260504013819 44 190 0.0 0.0 0.00 0.00 0.00 66 1010.5
20260504013315 45 190 0.0 0.0 0.00 0.00 0.00 65 1010.5
20260504012824 45 190 0.0 0.0 0.00 0.00 0.00 63 1010.5
20260504012331 46 190 0.0 0.0 0.00 0.00 0.00 60 1010.5
20260504011815 47 190 0.0 0.0 0.00 0.00 0.00 61 1010.5
20260504011339 47 190 0.0 0.0 0.00 0.00 0.00 57 1010.4
20260504010826 48 190 0.0 0.0 0.00 0.00 0.00 58 1010.3
20260504010334 49 190 0.0 0.0 0.00 0.00 0.00 55 1010.3
20260504005839 49 190 0.0 0.0 0.00 0.00 0.00 50 1010.2
20260504005318 50 190 0.0 0.0 0.00 0.00 0.00 51 1010.2
20260504004823 51 190 0.0 0.0 0.00 0.00 0.00 52 1010.1
20260504004350 52 190 0.0 0.0 0.00 0.00 0.00 48 1010.1
20260504003832 52 190 0.0 0.0 0.00 0.00 0.00 43 1010.1
20260504003320 53 192 0.0 0.0 0.00 0.00 0.00 41 1010.1
20260504002826 53 192 0.0 0.0 0.00 0.00 0.00 43 1010.0
20260504002338 54 191 0.0 0.0 0.00 0.00 0.00 40 1009.9
20260504001844 54 191 0.0 0.0 0.00 0.00 0.00 39 1010.0
20260504001320 55 222 0.0 0.0 0.00 0.00 0.00 38 1009.9
20260504000828 55 222 0.0 0.0 0.00 0.00 0.00 38 1009.9
20260504000350 55 202 0.0 0.0 0.00 0.00 0.00 37 1009.8
20260503235818 55 241 0.0 0.0 0.00 0.00 0.00 36 1009.8
20260503235322 55 222 0.0 0.0 0.00 0.00 0.00 36 1009.7
20260503234827 56 179 0.0 0.0 0.00 0.00 0.00 36 1009.5
20260503234320 56 176 1.0 0.0 0.00 0.00 0.00 35 1009.5
20260503233824 56 259 1.0 0.0 0.00 0.00 0.00 35 1009.5
20260503233327 57 285 1.0 0.0 0.00 0.00 0.00 35 1009.4
20260503232829 57 237 1.0 0.0 0.00 0.00 0.00 35 1009.4
20260503232322 57 187 1.0 0.0 0.00 0.00 0.00 34 1009.4
20260503231831 57 17 1.0 0.0 0.00 0.00 0.00 34 1009.4
20260503231338 58 313 0.0 0.0 0.00 0.00 0.00 34 1009.4
20260503230906 57 265 0.0 0.0 0.00 0.00 0.00 34 1009.4
20260503230317 57 332 0.0 0.0 0.00 0.00 0.00 34 1009.4
20260503225821 57 13 0.0 0.0 0.00 0.00 0.00 33 1009.3
20260503225329 57 253 1.0 0.0 0.00 0.00 0.00 34 1009.4
20260503224835 58 272 2.0 0.0 0.00 0.00 0.00 34 1009.3
20260503224322 58 254 2.0 0.0 0.00 0.00 0.00 32 1009.3
20260503223828 58 344 1.0 0.0 0.00 0.00 0.00 33 1009.3
20260503223336 58 191 0.0 0.0 0.00 0.00 0.00 36 1009.4
20260503222841 57 355 0.0 0.0 0.00 0.00 0.00 33 1009.3
20260503222343 57 235 1.0 0.0 0.00 0.00 0.00 34 1009.4
20260503221816 57 53 2.0 0.0 0.00 0.00 0.00 34 1009.3
20260503221322 57 217 1.0 0.0 0.00 0.00 0.00 33 1009.3
20260503220831 58 247 0.0 0.0 0.00 0.00 0.00 33 1009.4
20260503220329 58 285 1.0 0.0 0.00 0.00 0.00 32 1009.4
20260503215835 59 355 2.0 0.0 0.00 0.00 0.00 32 1009.4
20260503215323 59 268 3.0 0.0 0.00 0.00 0.00 32 1009.4
20260503214828 59 302 2.0 0.0 0.00 0.00 0.00 31 1009.4
20260503214313 59 215 2.0 0.0 0.00 0.00 0.00 31 1009.2
20260503213822 58 360 1.0 0.0 0.00 0.00 0.00 32 1009.2
20260503213325 58 341 1.0 0.0 0.00 0.00 0.00 31 1009.0
20260503212851 58 188 1.0 0.0 0.00 0.00 0.00 31 1009.2
20260503212333 58 196 1.0 0.0 0.00 0.00 0.00 31 1009.0
20260503211817 58 238 1.0 0.0 0.00 0.00 0.00 30 1008.9
20260503211345 58 231 1.0 0.0 0.00 0.00 0.00 30 1008.8
20260503210852 58 342 2.0 0.0 0.00 0.00 0.00 30 1008.9
20260503210329 59 248 2.0 0.0 0.00 0.00 0.00 29 1008.9
20260503205834 60 179 1.0 0.0 0.00 0.00 0.00 28 1008.7
20260503205325 59 309 2.0 0.0 0.00 0.00 0.00 31 1008.6
20260503204827 58 25 2.0 0.0 0.00 0.00 0.00 30 1008.8
20260503204329 58 360 3.0 0.0 0.00 0.00 0.00 31 1008.9
20260503203825 58 9 3.0 0.0 0.00 0.00 0.00 28 1009.0
20260503203332 59 19 2.0 0.0 0.00 0.00 0.00 29 1008.8
20260503202817 59 287 3.0 0.0 0.00 0.00 0.00 29 1008.9
20260503202322 58 278 4.0 0.0 0.00 0.00 0.00 29 1008.8
20260503201847 58 67 3.0 0.0 0.00 0.00 0.00 28 1008.9
20260503201331 58 28 2.0 0.0 0.00 0.00 0.00 33 1009.0
20260503200823 58 338 2.0 0.0 0.00 0.00 0.00 30 1009.0
20260503200319 59 35 1.0 0.0 0.00 0.00 0.00 31 1009.0
20260503195852 58 250 0.0 0.0 0.00 0.00 0.00 34 1009.2
20260503195329 58 221 1.0 0.0 0.00 0.00 0.00 29 1009.2
20260503194835 59 242 2.0 0.0 0.00 0.00 0.00 30 1009.3
20260503194312 59 212 2.0 0.0 0.00 0.00 0.00 30 1009.4
20260503193817 58 247 4.0 0.0 0.00 0.00 0.00 29 1009.4
20260503193326 58 258 3.0 0.0 0.00 0.00 0.00 34 1009.5
20260503192852 57 305 3.0 0.0 0.00 0.00 0.00 29 1009.6
20260503192340 57 301 5.0 0.0 0.00 0.00 0.00 33 1009.9
20260503191822 57 305 4.0 0.0 0.00 0.00 0.00 30 1009.7
20260503191331 57 360 1.0 0.0 0.00 0.00 0.00 33 1010.0
20260503190816 57 9 1.0 0.0 0.00 0.00 0.00 35 1009.8
20260503190345 55 194 1.0 0.0 0.00 0.00 0.00 35 1009.8
20260503185831 55 321 2.0 0.0 0.00 0.00 0.00 32 1010.0
20260503185332 55 11 3.0 0.0 0.00 0.00 0.00 32 1010.1
20260503184835 56 312 2.0 0.0 0.00 0.00 0.00 35 1010.1
20260503184343 55 68 3.0 0.0 0.00 0.00 0.00 34 1009.9
20260503183816 55 25 3.0 0.0 0.00 0.00 0.00 33 1010.2
20260503183321 55 42 3.0 0.0 0.00 0.00 0.00 33 1010.3
20260503182827 54 306 4.0 0.0 0.00 0.00 0.00 35 1010.5
20260503182333 54 14 3.0 0.0 0.00 0.00 0.00 36 1010.2
20260503181842 53 329 2.0 0.0 0.00 0.00 0.00 35 1010.4
20260503181325 53 9 3.0 0.0 0.00 0.00 0.00 35 1010.3
20260503180827 53 254 4.0 0.0 0.00 0.00 0.00 34 1010.4
20260503180333 54 337 3.0 0.0 0.00 0.00 0.00 33 1010.6
20260503175838 55 350 3.0 0.0 0.00 0.00 0.00 38 1010.3
20260503175343 54 17 3.0 0.0 0.00 0.00 0.00 34 1010.3
20260503174817 55 290 3.0 0.0 0.00 0.00 0.00 36 1010.4
20260503174315 54 24 3.0 0.0 0.00 0.00 0.00 37 1010.4
20260503173821 54 5 4.0 0.0 0.00 0.00 0.00 36 1010.4
20260503173326 54 303 4.0 0.0 0.00 0.00 0.00 35 1010.4
20260503172830 52 236 2.0 0.0 0.00 0.00 0.00 38 1010.5
20260503172316 52 284 2.0 0.0 0.00 0.00 0.00 35 1010.5
20260503171830 53 30 3.0 0.0 0.00 0.00 0.00 34 1010.6
20260503171328 52 12 3.0 0.0 0.00 0.00 0.00 36 1010.5
20260503170816 52 355 3.0 0.0 0.00 0.00 0.00 34 1010.6
20260503170319 54 9 3.0 0.0 0.00 0.00 0.00 34 1010.7
20260503150813 47 355 3.0 0.0 0.00 0.00 0.00 47 1011.6
20260503150321 47 355 2.0 0.0 0.00 0.00 0.00 48 1011.4
20260503131331 43 30 3.0 0.0 0.00 0.00 0.00 59 1011.6
20260503130816 43 355 2.0 0.0 0.00 0.00 0.00 60 1011.7
20260503130318 43 42 1.0 0.0 0.00 0.00 0.00 60 1011.7
20260503110331 40 360 4.0 0.0 0.00 0.00 0.00 69 1010.7
20260503090320 40 100 0.0 0.0 0.00 0.00 0.00 68 1009.8
20260503081314 41 350 0.0 0.0 0.00 0.00 0.00 63 1009.7
20260503080845 41 342 0.0 0.0 0.00 0.00 0.00 63 1009.7
20260503080351 41 355 1.0 0.0 0.00 0.00 0.00 62 1009.6